Year,Month,Day,Hour,Minute,Value (Times are PST for temperature in C)
2013,10,18,00,00,6.10
2013,10,18,00,01,6.10
2013,10,18,00,02,6.10
2013,10,18,00,03,6.10
2013,10,18,00,04,6.10
2013,10,18,00,05,6.10
2013,10,18,00,06,6.10
2013,10,18,00,07,6.00
2013,10,18,00,08,6.00
2013,10,18,00,09,6.00
2013,10,18,00,10,6.00
2013,10,18,00,11,6.00
2013,10,18,00,12,6.00
2013,10,18,00,13,6.00
2013,10,18,00,14,6.00
2013,10,18,00,15,6.00
2013,10,18,00,16,6.00
2013,10,18,00,17,6.00
2013,10,18,00,18,6.00
2013,10,18,00,19,6.00
2013,10,18,00,20,6.00
2013,10,18,00,21,6.00
2013,10,18,00,22,6.00
2013,10,18,00,23,6.10
2013,10,18,00,24,6.10
2013,10,18,00,25,6.20
2013,10,18,00,26,6.20
2013,10,18,00,27,6.20
2013,10,18,00,28,6.20
2013,10,18,00,29,6.20
2013,10,18,00,30,6.10
2013,10,18,00,31,6.10
2013,10,18,00,32,6.10
2013,10,18,00,33,6.10
2013,10,18,00,34,6.10
2013,10,18,00,35,6.10
2013,10,18,00,36,6.10
2013,10,18,00,37,6.10
2013,10,18,00,38,6.10
2013,10,18,00,39,6.10
2013,10,18,00,40,6.10
2013,10,18,00,41,6.10
2013,10,18,00,42,6.10
2013,10,18,00,43,6.10
2013,10,18,00,44,6.10
2013,10,18,00,45,6.10
2013,10,18,00,46,6.10
2013,10,18,00,47,6.10
2013,10,18,00,48,6.10
2013,10,18,00,49,6.20
2013,10,18,00,50,6.20
2013,10,18,00,51,6.20
2013,10,18,00,52,6.20
2013,10,18,00,53,6.20
2013,10,18,00,54,6.20
2013,10,18,00,55,6.20
2013,10,18,00,56,6.20
2013,10,18,00,57,6.20
2013,10,18,00,58,6.20
2013,10,18,00,59,6.20
2013,10,18,01,00,6.20
2013,10,18,01,01,6.30
2013,10,18,01,02,6.40
2013,10,18,01,03,6.40
2013,10,18,01,04,6.40
2013,10,18,01,05,6.40
2013,10,18,01,06,6.40
2013,10,18,01,07,6.30
2013,10,18,01,08,6.30
2013,10,18,01,09,6.30
2013,10,18,01,10,6.30
2013,10,18,01,11,6.20
2013,10,18,01,12,6.20
2013,10,18,01,13,6.20
2013,10,18,01,14,6.20
2013,10,18,01,15,6.20
2013,10,18,01,16,6.20
2013,10,18,01,17,6.20
2013,10,18,01,18,6.20
2013,10,18,01,19,6.20
2013,10,18,01,20,6.20
2013,10,18,01,21,6.20
2013,10,18,01,22,6.10
2013,10,18,01,23,6.10
2013,10,18,01,24,6.10
2013,10,18,01,25,6.10
2013,10,18,01,26,6.10
2013,10,18,01,27,6.10
2013,10,18,01,28,6.10
2013,10,18,01,29,6.10
2013,10,18,01,30,6.00
2013,10,18,01,31,6.10
2013,10,18,01,32,6.10
2013,10,18,01,33,6.10
2013,10,18,01,34,6.10
2013,10,18,01,35,6.10
2013,10,18,01,36,6.10
2013,10,18,01,37,6.10
2013,10,18,01,38,6.10
2013,10,18,01,39,6.10
2013,10,18,01,40,6.20
2013,10,18,01,41,6.20
2013,10,18,01,42,6.20
2013,10,18,01,43,6.30
2013,10,18,01,44,6.30
2013,10,18,01,45,6.40
2013,10,18,01,46,6.40
2013,10,18,01,47,6.40
2013,10,18,01,48,6.50
2013,10,18,01,49,6.50
2013,10,18,01,50,6.50
2013,10,18,01,51,6.60
2013,10,18,01,52,6.60
2013,10,18,01,53,6.60
2013,10,18,01,54,6.60
2013,10,18,01,55,6.60
2013,10,18,01,56,6.60
2013,10,18,01,57,6.60
2013,10,18,01,58,6.60
2013,10,18,01,59,6.60
2013,10,18,02,00,6.60
2013,10,18,02,01,6.60
2013,10,18,02,02,6.60
2013,10,18,02,03,6.60
2013,10,18,02,04,6.60
2013,10,18,02,05,6.60
2013,10,18,02,06,6.50
2013,10,18,02,07,6.50
2013,10,18,02,08,6.50
2013,10,18,02,09,6.40
2013,10,18,02,10,6.40
2013,10,18,02,11,6.40
2013,10,18,02,12,6.40
2013,10,18,02,13,6.30
2013,10,18,02,14,6.30
2013,10,18,02,15,6.30
2013,10,18,02,16,6.30
2013,10,18,02,17,6.20
2013,10,18,02,18,6.20
2013,10,18,02,19,6.20
2013,10,18,02,20,6.20
2013,10,18,02,21,6.20
2013,10,18,02,22,6.20
2013,10,18,02,23,6.20
2013,10,18,02,24,6.20
2013,10,18,02,25,6.20
2013,10,18,02,26,6.10
2013,10,18,02,27,6.10
2013,10,18,02,28,6.10
2013,10,18,02,29,6.10
2013,10,18,02,30,6.10
2013,10,18,02,31,6.10
2013,10,18,02,32,6.10
2013,10,18,02,33,6.00
2013,10,18,02,34,6.00
2013,10,18,02,35,6.00
2013,10,18,02,36,6.00
2013,10,18,02,37,5.90
2013,10,18,02,38,5.90
2013,10,18,02,39,5.90
2013,10,18,02,40,5.90
2013,10,18,02,41,5.90
2013,10,18,02,42,5.80
2013,10,18,02,43,5.80
2013,10,18,02,44,5.80
2013,10,18,02,45,5.80
2013,10,18,02,46,5.70
2013,10,18,02,47,5.70
2013,10,18,02,48,5.70
2013,10,18,02,49,5.70
2013,10,18,02,50,5.60
2013,10,18,02,51,5.60
2013,10,18,02,52,5.60
2013,10,18,02,53,5.60
2013,10,18,02,54,5.50
2013,10,18,02,55,5.50
2013,10,18,02,56,5.40
2013,10,18,02,57,5.40
2013,10,18,02,58,5.40
2013,10,18,02,59,5.40
2013,10,18,03,00,5.40
2013,10,18,03,01,5.40
2013,10,18,03,02,5.30
2013,10,18,03,03,5.30
2013,10,18,03,04,5.30
2013,10,18,03,05,5.30
2013,10,18,03,06,5.30
2013,10,18,03,07,5.30
2013,10,18,03,08,5.30
2013,10,18,03,09,5.30
2013,10,18,03,10,5.30
2013,10,18,03,11,5.20
2013,10,18,03,12,5.20
2013,10,18,03,13,5.20
2013,10,18,03,14,5.20
2013,10,18,03,15,5.20
2013,10,18,03,16,5.20
2013,10,18,03,17,5.20
2013,10,18,03,18,5.20
2013,10,18,03,19,5.20
2013,10,18,03,20,5.20
2013,10,18,03,21,5.20
2013,10,18,03,22,5.20
2013,10,18,03,23,5.10
2013,10,18,03,24,5.10
2013,10,18,03,25,5.10
2013,10,18,03,26,5.10
2013,10,18,03,27,5.10
2013,10,18,03,28,5.10
2013,10,18,03,29,5.00
2013,10,18,03,30,5.00
2013,10,18,03,31,4.90
2013,10,18,03,32,4.90
2013,10,18,03,33,4.90
2013,10,18,03,34,4.90
2013,10,18,03,35,4.90
2013,10,18,03,36,4.80
2013,10,18,03,37,4.80
2013,10,18,03,38,4.80
2013,10,18,03,39,4.80
2013,10,18,03,40,4.80
2013,10,18,03,41,4.70
2013,10,18,03,42,4.70
2013,10,18,03,43,4.70
2013,10,18,03,44,4.70
2013,10,18,03,45,4.70
2013,10,18,03,46,4.70
2013,10,18,03,47,4.70
2013,10,18,03,48,4.70
2013,10,18,03,49,4.70
2013,10,18,03,50,4.70
2013,10,18,03,51,4.70
2013,10,18,03,52,4.70
2013,10,18,03,53,4.70
2013,10,18,03,54,4.70
2013,10,18,03,55,4.70
2013,10,18,03,56,4.70
2013,10,18,03,57,4.70
2013,10,18,03,58,4.70
2013,10,18,03,59,4.70
2013,10,18,04,00,4.70
2013,10,18,04,01,4.70
2013,10,18,04,02,4.70
2013,10,18,04,03,4.70
2013,10,18,04,04,4.70
2013,10,18,04,05,4.70
2013,10,18,04,06,4.70
2013,10,18,04,07,4.70
2013,10,18,04,08,4.70
2013,10,18,04,09,4.60
2013,10,18,04,10,4.60
2013,10,18,04,11,4.60
2013,10,18,04,12,4.60
2013,10,18,04,13,4.60
2013,10,18,04,14,4.50
2013,10,18,04,15,4.50
2013,10,18,04,16,4.50
2013,10,18,04,17,4.50
2013,10,18,04,18,4.50
2013,10,18,04,19,4.50
2013,10,18,04,20,4.50
2013,10,18,04,21,4.40
2013,10,18,04,22,4.40
2013,10,18,04,23,4.40
2013,10,18,04,24,4.40
2013,10,18,04,25,4.40
2013,10,18,04,26,4.40
2013,10,18,04,27,4.30
2013,10,18,04,28,4.30
2013,10,18,04,29,4.30
2013,10,18,04,30,4.30
2013,10,18,04,31,4.30
2013,10,18,04,32,4.30
2013,10,18,04,33,4.30
2013,10,18,04,34,4.30
2013,10,18,04,35,4.30
2013,10,18,04,36,4.30
2013,10,18,04,37,4.30
2013,10,18,04,38,4.40
2013,10,18,04,39,4.40
2013,10,18,04,40,4.40
2013,10,18,04,41,4.40
2013,10,18,04,42,4.40
2013,10,18,04,43,4.40
2013,10,18,04,44,4.40
2013,10,18,04,45,4.40
2013,10,18,04,46,4.40
2013,10,18,04,47,4.30
2013,10,18,04,48,4.30
2013,10,18,04,49,4.30
2013,10,18,04,50,4.30
2013,10,18,04,51,4.30
2013,10,18,04,52,4.30
2013,10,18,04,53,4.30
2013,10,18,04,54,4.30
2013,10,18,04,55,4.30
2013,10,18,04,56,4.30
2013,10,18,04,57,4.30
2013,10,18,04,58,4.30
2013,10,18,04,59,4.30
2013,10,18,05,00,4.30
2013,10,18,05,01,4.30
2013,10,18,05,02,4.30
2013,10,18,05,03,4.30
2013,10,18,05,04,4.30
2013,10,18,05,05,4.30
2013,10,18,05,06,4.30
2013,10,18,05,07,4.30
2013,10,18,05,08,4.20
2013,10,18,05,09,4.20
2013,10,18,05,10,4.20
2013,10,18,05,11,4.20
2013,10,18,05,12,4.20
2013,10,18,05,13,4.20
2013,10,18,05,14,4.20
2013,10,18,05,15,4.20
2013,10,18,05,16,4.10
2013,10,18,05,17,4.10
2013,10,18,05,18,4.10
2013,10,18,05,19,4.10
2013,10,18,05,20,4.10
2013,10,18,05,21,4.10
2013,10,18,05,22,4.10
2013,10,18,05,23,4.10
2013,10,18,05,24,4.10
2013,10,18,05,25,4.10
2013,10,18,05,26,4.10
2013,10,18,05,27,4.10
2013,10,18,05,28,4.20
2013,10,18,05,29,4.20
2013,10,18,05,30,4.20
2013,10,18,05,31,4.20
2013,10,18,05,32,4.20
2013,10,18,05,33,4.20
2013,10,18,05,34,4.20
2013,10,18,05,35,4.30
2013,10,18,05,36,4.30
2013,10,18,05,37,4.30
2013,10,18,05,38,4.30
2013,10,18,05,39,4.30
2013,10,18,05,40,4.30
2013,10,18,05,41,4.40
2013,10,18,05,42,4.40
2013,10,18,05,43,4.40
2013,10,18,05,44,4.40
2013,10,18,05,45,4.40
2013,10,18,05,46,4.40
2013,10,18,05,47,4.40
2013,10,18,05,48,4.40
2013,10,18,05,49,4.40
2013,10,18,05,50,4.40
2013,10,18,05,51,4.40
2013,10,18,05,52,4.40
2013,10,18,05,53,4.40
2013,10,18,05,54,4.50
2013,10,18,05,55,4.50
2013,10,18,05,56,4.50
2013,10,18,05,57,4.50
2013,10,18,05,58,4.60
2013,10,18,05,59,4.60
2013,10,18,06,00,4.60
2013,10,18,06,01,4.60
2013,10,18,06,02,4.60
2013,10,18,06,03,4.60
2013,10,18,06,04,4.60
2013,10,18,06,05,4.60
2013,10,18,06,06,4.60
2013,10,18,06,07,4.60
2013,10,18,06,08,4.60
2013,10,18,06,09,4.60
2013,10,18,06,10,4.60
2013,10,18,06,11,4.70
2013,10,18,06,12,4.70
2013,10,18,06,13,4.70
2013,10,18,06,14,4.70
2013,10,18,06,15,4.70
2013,10,18,06,16,4.70
2013,10,18,06,17,4.60
2013,10,18,06,18,4.60
2013,10,18,06,19,4.60
2013,10,18,06,20,4.60
2013,10,18,06,21,4.60
2013,10,18,06,22,4.60
2013,10,18,06,23,4.60
2013,10,18,06,24,4.60
2013,10,18,06,25,4.50
2013,10,18,06,26,4.50
2013,10,18,06,27,4.50
2013,10,18,06,28,4.50
2013,10,18,06,29,4.50
2013,10,18,06,30,4.50
2013,10,18,06,31,4.50
2013,10,18,06,32,4.50
2013,10,18,06,33,4.40
2013,10,18,06,34,4.40
2013,10,18,06,35,4.40
2013,10,18,06,36,4.40
2013,10,18,06,37,4.40
2013,10,18,06,38,4.40
2013,10,18,06,39,4.40
2013,10,18,06,40,4.40
2013,10,18,06,41,4.40
2013,10,18,06,42,4.40
2013,10,18,06,43,4.40
2013,10,18,06,44,4.40
2013,10,18,06,45,4.30
2013,10,18,06,46,4.30
2013,10,18,06,47,4.30
2013,10,18,06,48,4.30
2013,10,18,06,49,4.30
2013,10,18,06,50,4.30
2013,10,18,06,51,4.30
2013,10,18,06,52,4.30
2013,10,18,06,53,4.30
2013,10,18,06,54,4.30
2013,10,18,06,55,4.30
2013,10,18,06,56,4.30
2013,10,18,06,57,4.20
2013,10,18,06,58,4.20
2013,10,18,06,59,4.20
2013,10,18,07,00,4.20
2013,10,18,07,01,4.20
2013,10,18,07,02,4.20
2013,10,18,07,03,4.20
2013,10,18,07,04,4.20
2013,10,18,07,05,4.20
2013,10,18,07,06,4.20
2013,10,18,07,07,4.20
2013,10,18,07,08,4.20
2013,10,18,07,09,4.20
2013,10,18,07,10,4.20
2013,10,18,07,11,4.20
2013,10,18,07,12,4.20
2013,10,18,07,13,4.20
2013,10,18,07,14,4.20
2013,10,18,07,15,4.10
2013,10,18,07,16,4.10
2013,10,18,07,17,4.10
2013,10,18,07,18,4.10
2013,10,18,07,19,4.10
2013,10,18,07,20,4.10
2013,10,18,07,21,4.20
2013,10,18,07,22,4.20
2013,10,18,07,23,4.10
2013,10,18,07,24,4.10
2013,10,18,07,25,4.10
2013,10,18,07,26,4.10
2013,10,18,07,27,4.10
2013,10,18,07,28,4.10
2013,10,18,07,29,4.10
2013,10,18,07,30,4.10
2013,10,18,07,31,4.10
2013,10,18,07,32,4.10
2013,10,18,07,33,4.10
2013,10,18,07,34,4.10
2013,10,18,07,35,4.10
2013,10,18,07,36,4.10
2013,10,18,07,37,4.10
2013,10,18,07,38,4.10
2013,10,18,07,39,4.00
2013,10,18,07,40,4.00
2013,10,18,07,41,4.00
2013,10,18,07,42,4.00
2013,10,18,07,43,4.00
2013,10,18,07,44,3.90
2013,10,18,07,45,3.90
2013,10,18,07,46,3.90
2013,10,18,07,47,3.90
2013,10,18,07,48,3.90
2013,10,18,07,49,3.90
2013,10,18,07,50,3.90
2013,10,18,07,51,3.90
2013,10,18,07,52,3.90
2013,10,18,07,53,3.90
2013,10,18,07,54,3.90
2013,10,18,07,55,3.90
2013,10,18,07,56,3.90
2013,10,18,07,57,4.00
2013,10,18,07,58,4.00
2013,10,18,07,59,4.00
2013,10,18,08,00,4.10
2013,10,18,08,01,4.10
2013,10,18,08,02,4.10
2013,10,18,08,03,4.10
2013,10,18,08,04,4.20
2013,10,18,08,05,4.20
2013,10,18,08,06,4.20
2013,10,18,08,07,4.20
2013,10,18,08,08,4.20
2013,10,18,08,09,4.30
2013,10,18,08,10,4.30
2013,10,18,08,11,4.30
2013,10,18,08,12,4.30
2013,10,18,08,13,4.30
2013,10,18,08,14,4.30
2013,10,18,08,15,4.30
2013,10,18,08,16,4.30
2013,10,18,08,17,4.30
2013,10,18,08,18,4.30
2013,10,18,08,19,4.30
2013,10,18,08,20,4.40
2013,10,18,08,21,4.40
2013,10,18,08,22,4.40
2013,10,18,08,23,4.40
2013,10,18,08,24,4.40
2013,10,18,08,25,4.50
2013,10,18,08,26,4.50
2013,10,18,08,27,4.50
2013,10,18,08,28,4.50
2013,10,18,08,29,4.50
2013,10,18,08,30,4.50
2013,10,18,08,31,4.50
2013,10,18,08,32,4.60
2013,10,18,08,33,4.60
2013,10,18,08,34,4.60
2013,10,18,08,35,4.60
2013,10,18,08,36,4.60
2013,10,18,08,37,4.60
2013,10,18,08,38,4.60
2013,10,18,08,39,4.60
2013,10,18,08,40,4.60
2013,10,18,08,41,4.70
2013,10,18,08,42,4.70
2013,10,18,08,43,4.70
2013,10,18,08,44,4.70
2013,10,18,08,45,4.80
2013,10,18,08,46,4.80
2013,10,18,08,47,4.80
2013,10,18,08,48,4.90
2013,10,18,08,49,4.90
2013,10,18,08,50,5.00
2013,10,18,08,51,5.00
2013,10,18,08,52,5.10
2013,10,18,08,53,5.10
2013,10,18,08,54,5.20
2013,10,18,08,55,5.20
2013,10,18,08,56,5.20
2013,10,18,08,57,5.30
2013,10,18,08,58,5.30
2013,10,18,08,59,5.40
2013,10,18,09,00,5.40
2013,10,18,09,01,5.40
2013,10,18,09,02,5.40
2013,10,18,09,03,5.50
2013,10,18,09,04,5.50
2013,10,18,09,05,5.50
2013,10,18,09,06,5.60
2013,10,18,09,07,5.60
2013,10,18,09,08,5.70
2013,10,18,09,09,5.70
2013,10,18,09,10,5.80
2013,10,18,09,11,5.80
2013,10,18,09,12,5.80
2013,10,18,09,13,5.90
2013,10,18,09,14,5.90
2013,10,18,09,15,6.00
2013,10,18,09,16,6.00
2013,10,18,09,17,6.10
2013,10,18,09,18,6.10
2013,10,18,09,19,6.10
2013,10,18,09,20,6.20
2013,10,18,09,21,6.20
2013,10,18,09,22,6.20
2013,10,18,09,23,6.20
2013,10,18,09,24,6.30
2013,10,18,09,25,6.30
2013,10,18,09,26,6.20
2013,10,18,09,27,6.20
2013,10,18,09,28,6.20
2013,10,18,09,29,6.20
2013,10,18,09,30,6.30
2013,10,18,09,31,6.30
2013,10,18,09,32,6.30
2013,10,18,09,33,6.30
2013,10,18,09,34,6.30
2013,10,18,09,35,6.30
2013,10,18,09,36,6.30
2013,10,18,09,37,6.30
2013,10,18,09,38,6.40
2013,10,18,09,39,6.40
2013,10,18,09,40,6.40
2013,10,18,09,41,6.40
2013,10,18,09,42,6.50
2013,10,18,09,43,6.50
2013,10,18,09,44,6.60
2013,10,18,09,45,6.60
2013,10,18,09,46,6.60
2013,10,18,09,47,6.60
2013,10,18,09,48,6.70
2013,10,18,09,49,6.70
2013,10,18,09,50,6.70
2013,10,18,09,51,6.70
2013,10,18,09,52,6.70
2013,10,18,09,53,6.70
2013,10,18,09,54,6.80
2013,10,18,09,55,6.80
2013,10,18,09,56,6.80
2013,10,18,09,57,6.80
2013,10,18,09,58,6.80
2013,10,18,09,59,6.80
2013,10,18,10,00,6.80
2013,10,18,10,01,6.80
2013,10,18,10,02,6.80
2013,10,18,10,03,6.90
2013,10,18,10,04,6.90
2013,10,18,10,05,6.90
2013,10,18,10,06,7.00
2013,10,18,10,07,7.00
2013,10,18,10,08,7.00
2013,10,18,10,09,7.10
2013,10,18,10,10,7.10
2013,10,18,10,11,7.10
2013,10,18,10,12,7.20
2013,10,18,10,13,7.20
2013,10,18,10,14,7.20
2013,10,18,10,15,7.20
2013,10,18,10,16,7.20
2013,10,18,10,17,7.20
2013,10,18,10,18,7.20
2013,10,18,10,19,7.30
2013,10,18,10,20,7.30
2013,10,18,10,21,7.30
2013,10,18,10,22,7.30
2013,10,18,10,23,7.40
2013,10,18,10,24,7.40
2013,10,18,10,25,7.40
2013,10,18,10,26,7.40
2013,10,18,10,27,7.40
2013,10,18,10,28,7.40
2013,10,18,10,29,7.50
2013,10,18,10,30,7.50
2013,10,18,10,31,7.50
2013,10,18,10,32,7.60
2013,10,18,10,33,7.60
2013,10,18,10,34,7.70
2013,10,18,10,35,7.70
2013,10,18,10,36,7.70
2013,10,18,10,37,7.70
2013,10,18,10,38,7.70
2013,10,18,10,39,7.70
2013,10,18,10,40,7.70
2013,10,18,10,41,7.70
2013,10,18,10,42,7.70
2013,10,18,10,43,7.70
2013,10,18,10,44,7.80
2013,10,18,10,45,7.80
2013,10,18,10,46,7.80
2013,10,18,10,47,7.90
2013,10,18,10,48,7.90
2013,10,18,10,49,7.90
2013,10,18,10,50,7.90
2013,10,18,10,51,7.90
2013,10,18,10,52,7.90
2013,10,18,10,53,8.00
2013,10,18,10,54,8.10
2013,10,18,10,55,8.10
2013,10,18,10,56,8.20
2013,10,18,10,57,8.20
2013,10,18,10,58,8.30
2013,10,18,10,59,8.30
2013,10,18,11,00,8.30
2013,10,18,11,01,8.30
2013,10,18,11,02,8.30
2013,10,18,11,03,8.40
2013,10,18,11,04,8.40
2013,10,18,11,05,8.50
2013,10,18,11,06,8.60
2013,10,18,11,07,8.60
2013,10,18,11,08,8.70
2013,10,18,11,09,8.80
2013,10,18,11,10,8.80
2013,10,18,11,11,8.80
2013,10,18,11,12,8.90
2013,10,18,11,13,8.90
2013,10,18,11,14,8.90
2013,10,18,11,15,8.90
2013,10,18,11,16,8.90
2013,10,18,11,17,8.90
2013,10,18,11,18,8.90
2013,10,18,11,19,8.90
2013,10,18,11,20,9.00
2013,10,18,11,21,9.10
2013,10,18,11,22,9.10
2013,10,18,11,23,9.20
2013,10,18,11,24,9.30
2013,10,18,11,25,9.40
2013,10,18,11,26,9.40
2013,10,18,11,27,9.50
2013,10,18,11,28,9.60
2013,10,18,11,29,9.60
2013,10,18,11,30,9.70
2013,10,18,11,31,9.70
2013,10,18,11,32,9.70
2013,10,18,11,33,9.80
2013,10,18,11,34,9.80
2013,10,18,11,35,9.90
2013,10,18,11,36,9.90
2013,10,18,11,37,10.00
2013,10,18,11,38,10.00
2013,10,18,11,39,10.00
2013,10,18,11,40,10.10
2013,10,18,11,41,10.10
2013,10,18,11,42,10.10
2013,10,18,11,43,10.10
2013,10,18,11,44,10.10
2013,10,18,11,45,10.10
2013,10,18,11,46,10.10
2013,10,18,11,47,10.20
2013,10,18,11,48,10.20
2013,10,18,11,49,10.20
2013,10,18,11,50,10.10
2013,10,18,11,51,10.20
2013,10,18,11,52,10.20
2013,10,18,11,53,10.30
2013,10,18,11,54,10.30
2013,10,18,11,55,10.20
2013,10,18,11,56,10.20
2013,10,18,11,57,10.20
2013,10,18,11,58,10.20
2013,10,18,11,59,10.20
2013,10,18,12,00,10.30
2013,10,18,12,01,10.30
2013,10,18,12,02,10.20
2013,10,18,12,03,10.20
2013,10,18,12,04,10.20
2013,10,18,12,05,10.20
2013,10,18,12,06,10.20
2013,10,18,12,07,10.10
2013,10,18,12,08,9.90
2013,10,18,12,09,9.90
2013,10,18,12,10,9.80
2013,10,18,12,11,9.80
2013,10,18,12,12,9.80
2013,10,18,12,13,9.70
2013,10,18,12,14,9.60
2013,10,18,12,15,9.60
2013,10,18,12,16,9.50
2013,10,18,12,17,9.50
2013,10,18,12,18,9.50
2013,10,18,12,19,9.60
2013,10,18,12,20,9.60
2013,10,18,12,21,9.70
2013,10,18,12,22,9.80
2013,10,18,12,23,9.80
2013,10,18,12,24,9.90
2013,10,18,12,25,9.90
2013,10,18,12,26,10.00
2013,10,18,12,27,10.10
2013,10,18,12,28,10.10
2013,10,18,12,29,10.10
2013,10,18,12,30,10.10
2013,10,18,12,31,10.20
2013,10,18,12,32,10.20
2013,10,18,12,33,10.30
2013,10,18,12,34,10.30
2013,10,18,12,35,10.40
2013,10,18,12,36,10.40
2013,10,18,12,37,10.40
2013,10,18,12,38,10.50
2013,10,18,12,39,10.50
2013,10,18,12,40,10.50
2013,10,18,12,41,10.50
2013,10,18,12,42,10.60
2013,10,18,12,43,10.60
2013,10,18,12,44,10.60
2013,10,18,12,45,10.60
2013,10,18,12,46,10.60
2013,10,18,12,47,10.60
2013,10,18,12,48,10.60
2013,10,18,12,49,10.60
2013,10,18,12,50,10.70
2013,10,18,12,51,10.70
2013,10,18,12,52,10.70
2013,10,18,12,53,10.70
2013,10,18,12,54,10.80
2013,10,18,12,55,10.80
2013,10,18,12,56,10.90
2013,10,18,12,57,10.90
2013,10,18,12,58,11.00
2013,10,18,12,59,11.10
2013,10,18,13,00,11.10
2013,10,18,13,01,11.20
2013,10,18,13,02,11.20
2013,10,18,13,03,11.20
2013,10,18,13,04,11.30
2013,10,18,13,05,11.30
2013,10,18,13,06,11.20
2013,10,18,13,07,11.20
2013,10,18,13,08,11.20
2013,10,18,13,09,11.20
2013,10,18,13,10,11.10
2013,10,18,13,11,11.10
2013,10,18,13,12,11.10
2013,10,18,13,13,11.20
2013,10,18,13,14,11.20
2013,10,18,13,15,11.20
2013,10,18,13,16,11.20
2013,10,18,13,17,11.20
2013,10,18,13,18,11.20
2013,10,18,13,19,11.30
2013,10,18,13,20,11.30
2013,10,18,13,21,11.40
2013,10,18,13,22,11.50
2013,10,18,13,23,11.60
2013,10,18,13,24,11.70
2013,10,18,13,25,11.70
2013,10,18,13,26,11.80
2013,10,18,13,27,11.80
2013,10,18,13,28,11.90
2013,10,18,13,29,11.90
2013,10,18,13,30,11.90
2013,10,18,13,31,11.90
2013,10,18,13,32,11.80
2013,10,18,13,33,11.90
2013,10,18,13,34,11.90
2013,10,18,13,35,11.90
2013,10,18,13,36,11.90
2013,10,18,13,37,11.90
2013,10,18,13,38,11.90
2013,10,18,13,39,11.90
2013,10,18,13,40,12.00
2013,10,18,13,41,12.10
2013,10,18,13,42,12.20
2013,10,18,13,43,12.20
2013,10,18,13,44,12.20
2013,10,18,13,45,12.20
2013,10,18,13,46,12.20
2013,10,18,13,47,12.30
2013,10,18,13,48,12.30
2013,10,18,13,49,12.30
2013,10,18,13,50,12.30
2013,10,18,13,51,12.40
2013,10,18,13,52,12.40
2013,10,18,13,53,12.40
2013,10,18,13,54,12.40
2013,10,18,13,55,12.40
2013,10,18,13,56,12.40
2013,10,18,13,57,12.50
2013,10,18,13,58,12.50
2013,10,18,13,59,12.50
2013,10,18,14,00,12.40
2013,10,18,14,01,12.30
2013,10,18,14,02,12.20
2013,10,18,14,03,12.20
2013,10,18,14,04,12.10
2013,10,18,14,05,12.10
2013,10,18,14,06,12.10
2013,10,18,14,07,12.10
2013,10,18,14,08,12.10
2013,10,18,14,09,12.10
2013,10,18,14,10,12.10
2013,10,18,14,11,12.20
2013,10,18,14,12,12.20
2013,10,18,14,13,12.20
2013,10,18,14,14,12.30
2013,10,18,14,15,12.30
2013,10,18,14,16,12.30
2013,10,18,14,17,12.30
2013,10,18,14,18,12.30
2013,10,18,14,19,12.40
2013,10,18,14,20,12.40
2013,10,18,14,21,12.40
2013,10,18,14,22,12.50
2013,10,18,14,23,12.50
2013,10,18,14,24,12.60
2013,10,18,14,25,12.60
2013,10,18,14,26,12.60
2013,10,18,14,27,12.70
2013,10,18,14,28,12.70
2013,10,18,14,29,12.80
2013,10,18,14,30,12.90
2013,10,18,14,31,13.00
2013,10,18,14,32,13.00
2013,10,18,14,33,13.00
2013,10,18,14,34,13.00
2013,10,18,14,35,13.00
2013,10,18,14,36,13.00
2013,10,18,14,37,12.90
2013,10,18,14,38,12.80
2013,10,18,14,39,12.70
2013,10,18,14,40,12.70
2013,10,18,14,41,12.60
2013,10,18,14,42,12.60
2013,10,18,14,43,12.60
2013,10,18,14,44,12.70
2013,10,18,14,45,12.70
2013,10,18,14,46,12.80
2013,10,18,14,47,12.80
2013,10,18,14,48,12.80
2013,10,18,14,49,12.90
2013,10,18,14,50,12.90
2013,10,18,14,51,12.90
2013,10,18,14,52,13.00
2013,10,18,14,53,13.00
2013,10,18,14,54,13.10
2013,10,18,14,55,13.10
2013,10,18,14,56,13.20
2013,10,18,14,57,13.20
2013,10,18,14,58,13.20
2013,10,18,14,59,13.20
2013,10,18,15,00,13.20
2013,10,18,15,01,13.20
2013,10,18,15,02,13.30
2013,10,18,15,03,13.30
2013,10,18,15,04,13.30
2013,10,18,15,05,13.20
2013,10,18,15,06,13.10
2013,10,18,15,07,13.00
2013,10,18,15,08,13.00
2013,10,18,15,09,13.00
2013,10,18,15,10,12.90
2013,10,18,15,11,12.90
2013,10,18,15,12,12.90
2013,10,18,15,13,12.90
2013,10,18,15,14,12.90
2013,10,18,15,15,12.90
2013,10,18,15,16,12.90
2013,10,18,15,17,12.80
2013,10,18,15,18,12.80
2013,10,18,15,19,12.80
2013,10,18,15,20,12.80
2013,10,18,15,21,12.90
2013,10,18,15,22,12.90
2013,10,18,15,23,12.90
2013,10,18,15,24,12.90
2013,10,18,15,25,12.90
2013,10,18,15,26,12.90
2013,10,18,15,27,12.90
2013,10,18,15,28,12.90
2013,10,18,15,29,12.90
2013,10,18,15,30,12.90
2013,10,18,15,31,12.90
2013,10,18,15,32,13.00
2013,10,18,15,33,13.00
2013,10,18,15,34,12.90
2013,10,18,15,35,12.90
2013,10,18,15,36,12.80
2013,10,18,15,37,12.80
2013,10,18,15,38,12.80
2013,10,18,15,39,12.70
2013,10,18,15,40,12.70
2013,10,18,15,41,12.70
2013,10,18,15,42,12.70
2013,10,18,15,43,12.70
2013,10,18,15,44,12.70
2013,10,18,15,45,12.70
2013,10,18,15,46,12.70
2013,10,18,15,47,12.70
2013,10,18,15,48,12.70
2013,10,18,15,49,12.80
2013,10,18,15,50,12.80
2013,10,18,15,51,12.80
2013,10,18,15,52,12.80
2013,10,18,15,53,12.70
2013,10,18,15,54,12.70
2013,10,18,15,55,12.60
2013,10,18,15,56,12.50
2013,10,18,15,57,12.40
2013,10,18,15,58,12.40
2013,10,18,15,59,12.40
2013,10,18,16,00,12.30
2013,10,18,16,01,12.30
2013,10,18,16,02,12.30
2013,10,18,16,03,12.30
2013,10,18,16,04,12.20
2013,10,18,16,05,12.20
2013,10,18,16,06,12.20
2013,10,18,16,07,12.30
2013,10,18,16,08,12.30
2013,10,18,16,09,12.30
2013,10,18,16,10,12.20
2013,10,18,16,11,12.20
2013,10,18,16,12,12.20
2013,10,18,16,13,12.30
2013,10,18,16,14,12.30
2013,10,18,16,15,12.30
2013,10,18,16,16,12.30
2013,10,18,16,17,12.20
2013,10,18,16,18,12.20
2013,10,18,16,19,12.10
2013,10,18,16,20,12.10
2013,10,18,16,21,12.00
2013,10,18,16,22,12.00
2013,10,18,16,23,12.00
2013,10,18,16,24,12.00
2013,10,18,16,25,12.00
2013,10,18,16,26,12.00
2013,10,18,16,27,12.00
2013,10,18,16,28,12.00
2013,10,18,16,29,12.00
2013,10,18,16,30,12.00
2013,10,18,16,31,12.00
2013,10,18,16,32,12.00
2013,10,18,16,33,11.90
2013,10,18,16,34,11.90
2013,10,18,16,35,11.90
2013,10,18,16,36,11.80
2013,10,18,16,37,11.80
2013,10,18,16,38,11.70
2013,10,18,16,39,11.70
2013,10,18,16,40,11.70
2013,10,18,16,41,11.60
2013,10,18,16,42,11.60
2013,10,18,16,43,11.60
2013,10,18,16,44,11.60
2013,10,18,16,45,11.50
2013,10,18,16,46,11.50
2013,10,18,16,47,11.40
2013,10,18,16,48,11.40
2013,10,18,16,49,11.40
2013,10,18,16,50,11.40
2013,10,18,16,51,11.40
2013,10,18,16,52,11.40
2013,10,18,16,53,11.40
2013,10,18,16,54,11.40
2013,10,18,16,55,11.40
2013,10,18,16,56,11.40
2013,10,18,16,57,11.40
2013,10,18,16,58,11.50
2013,10,18,16,59,11.50
2013,10,18,17,00,11.60
2013,10,18,17,01,11.60
2013,10,18,17,02,11.60
2013,10,18,17,03,11.60
2013,10,18,17,04,11.60
2013,10,18,17,05,11.60
2013,10,18,17,06,11.60
2013,10,18,17,07,11.60
2013,10,18,17,08,11.60
2013,10,18,17,09,11.60
2013,10,18,17,10,11.60
2013,10,18,17,11,11.50
2013,10,18,17,12,11.50
2013,10,18,17,13,11.40
2013,10,18,17,14,11.40
2013,10,18,17,15,11.40
2013,10,18,17,16,11.30
2013,10,18,17,17,11.30
2013,10,18,17,18,11.30
2013,10,18,17,19,11.30
2013,10,18,17,20,11.30
2013,10,18,17,21,11.20
2013,10,18,17,22,11.20
2013,10,18,17,23,11.20
2013,10,18,17,24,11.20
2013,10,18,17,25,11.10
2013,10,18,17,26,11.10
2013,10,18,17,27,11.10
2013,10,18,17,28,11.10
2013,10,18,17,29,11.00
2013,10,18,17,30,11.00
2013,10,18,17,31,10.90
2013,10,18,17,32,10.90
2013,10,18,17,33,10.90
2013,10,18,17,34,10.90
2013,10,18,17,35,10.80
2013,10,18,17,36,10.80
2013,10,18,17,37,10.80
2013,10,18,17,38,10.70
2013,10,18,17,39,10.70
2013,10,18,17,40,10.60
2013,10,18,17,41,10.50
2013,10,18,17,42,10.50
2013,10,18,17,43,10.40
2013,10,18,17,44,10.40
2013,10,18,17,45,10.30
2013,10,18,17,46,10.30
2013,10,18,17,47,10.30
2013,10,18,17,48,10.20
2013,10,18,17,49,10.20
2013,10,18,17,50,10.20